Flag for Canada Weather past 2 weeks in Shawinigan, Quebec, Canada

Now
71 °F

Mild.


Feels Like: 73 °F
Forecast: 58 / 72 °F
Wind: 12 mph from West

Location: Trois Rivieres

Current Time: Jul 31, 2015 at 9:36:11 PM

Latest Report: Jul 31, 2015 at 9:00 PM


Visibility: N/A

Pressure: 29.67 "Hg

Humidity: 75%

Dew point: 63 °F

Location of ShawiniganLocation

Historic Weather in Shawinigan — Graph

°F

Shawinigan temperature yesterday

Maximum temperature yesterday: 78 °F (at 6:00 PM)
Minimum temperature yesterday: 66 °F (at 6:00 AM)
Average temperature yesterday: 73 °F

Past Weeks' High & Low Weather Summary

 TemperatureHumidityPressure
High85 °F (Jul 29, 5:00 PM)100% (Jul 18, 5:00 AM)30.09 "Hg (Jul 18, 5:00 AM)
Low55 °F (Jul 17, 5:00 AM)45% (Jul 17, 3:00 PM)29.48 "Hg (Jul 21, 3:00 PM)
Average69 °F82%29.79 "Hg
* Reported Jul 16 8:00 PM — Jul 31 8:00 PM, Shawinigan, Weather by CustomWeather, © 2015

Note: Actual official high and low records may vary slightly from our data, if they occured in-between our weather recording intervals... More about our weather records

Advertising

Shawinigan weather history for previous 24 hours

 ConditionsComfort  
Time TempWeatherWind HumidityBarometerVisibility
8:00 PM
Fri, Jul 31
75 °FMild.13 mph70%29.64 "HgN/A
7:00 PM77 °FMild.15 mph64%29.63 "HgN/A
6:00 PM78 °FWarm.16 mph56%29.63 "HgN/A
5:00 PM78 °FWarm.15 mph57%29.63 "HgN/A
4:00 PM77 °FMild.17 mph59%29.64 "HgN/A
3:00 PM76 °FMild.16 mph59%29.65 "HgN/A
2:00 PM76 °FMild.5 mph53%29.66 "HgN/A
1:00 PM74 °FMild.8 mph58%29.66 "HgN/A
12:00 PM72 °FMild.5 mph75%29.67 "HgN/A
11:00 AM73 °FMild.18 mph72%29.66 "HgN/A
10:00 AM70 °FMild.9 mph78%29.66 "HgN/A
9:00 AM71 °FMild.13 mph78%29.65 "HgN/A
8:00 AM69 °FMild.17 mph84%29.65 "HgN/A
7:00 AM69 °FMild.15 mph84%29.63 "HgN/A
6:00 AM69 °FMild.10 mph86%29.62 "HgN/A
5:00 AM70 °FMild.10 mph88%29.62 "HgN/A
4:00 AM70 °FMild.7 mph81%29.62 "HgN/A
3:00 AM71 °FMild.5 mph89%29.62 "HgN/A
2:00 AM72 °FMild.5 mph81%29.62 "HgN/A
1:00 AM73 °FMild.3 mph84%29.63 "HgN/A
12:00 AM74 °FMild.10 mph84%29.62 "HgN/A
11:00 PM
Thu, Jul 30
74 °FMild.9 mph82%29.62 "HgN/A
10:00 PM75 °FMild.7 mph85%29.63 "HgN/A
9:00 PM76 °FMild.12 mph85%29.62 "HgN/A
Weather by CustomWeather, © 2015

See weather overviewHow to use our weather pages